TOM7AC EGGD-LEMG

Flight info

Callsign TOM7AC
Flight time 2h 28m
Altitude 35000
Route EXMOR N92 DAWLY N864 BHD DCT SALCO DCT GOPIN DCT DELOG DCT CRISA DCT VULPE
Aircraft B738/M-SDE2E3FGHIRWXY/LB1

Departure

Time 2026-05-07 08:44
Airport Bristol Airport (EGGD)

Arrival

Time 2026-05-07 11:13
Airport Málaga-Costa del Sol Airport (LEMG)
Time Latitude Longitude Altitude Speed Heading
2026-05-07 08:44 51.28740 -2.80308 15249 ft 355 kts 272°
2026-05-07 08:44 51.28886 -2.84256 16059 ft 357 kts 272°
2026-05-07 08:45 51.28890 -2.88233 16829 ft 360 kts 259°
2026-05-07 08:45 51.27949 -2.91899 17586 ft 360 kts 233°
2026-05-07 08:45 51.26141 -2.94646 18377 ft 362 kts 214°
2026-05-07 08:45 51.23905 -2.96398 18999 ft 367 kts 198°
2026-05-07 08:46 51.21422 -2.97473 19605 ft 372 kts 194°
2026-05-07 08:46 51.18890 -2.98435 20217 ft 376 kts 194°
2026-05-07 08:46 51.16329 -2.99372 20871 ft 379 kts 194°
2026-05-07 08:46 51.13748 -3.00318 21502 ft 383 kts 194°
2026-05-07 08:47 51.11143 -3.01286 22095 ft 387 kts 194°
2026-05-07 08:47 51.08511 -3.02278 22682 ft 391 kts 194°
2026-05-07 08:47 51.05858 -3.03289 23288 ft 394 kts 195°
2026-05-07 08:47 51.03218 -3.04302 23826 ft 397 kts 194°
2026-05-07 08:48 51.00520 -3.05341 24293 ft 401 kts 194°
2026-05-07 08:48 50.97801 -3.06389 24794 ft 403 kts 195°
2026-05-07 08:48 50.95068 -3.07442 25290 ft 406 kts 195°
2026-05-07 08:48 50.92318 -3.08501 25754 ft 409 kts 194°
2026-05-07 08:49 50.89538 -3.09571 26160 ft 413 kts 194°
2026-05-07 08:49 50.86741 -3.10646 26653 ft 415 kts 194°
2026-05-07 08:49 50.83927 -3.11726 27139 ft 417 kts 194°
2026-05-07 08:49 50.81095 -3.12812 27522 ft 421 kts 195°
2026-05-07 08:50 50.78275 -3.13891 27936 ft 424 kts 195°
2026-05-07 08:50 50.75405 -3.14989 28378 ft 426 kts 195°
2026-05-07 08:50 50.72515 -3.16092 28799 ft 428 kts 195°
2026-05-07 08:50 50.69607 -3.17201 29180 ft 431 kts 195°
2026-05-07 08:51 50.66682 -3.18315 29560 ft 434 kts 195°
2026-05-07 08:51 50.63737 -3.19435 29951 ft 436 kts 195°
2026-05-07 08:51 50.60788 -3.20555 30409 ft 435 kts 195°
2026-05-07 08:51 50.57854 -3.21666 30920 ft 432 kts 195°
2026-05-07 08:52 50.54942 -3.22768 31405 ft 430 kts 195°
2026-05-07 08:52 50.52069 -3.23855 31782 ft 431 kts 195°
2026-05-07 08:52 50.49153 -3.24957 32155 ft 431 kts 195°
2026-05-07 08:52 50.46236 -3.26059 32570 ft 430 kts 195°
2026-05-07 08:53 50.43329 -3.27155 33012 ft 429 kts 195°
2026-05-07 08:53 50.40428 -3.28246 33416 ft 429 kts 195°
2026-05-07 08:53 50.37528 -3.29337 33808 ft 428 kts 195°
2026-05-07 08:53 50.34637 -3.30422 34231 ft 426 kts 195°
2026-05-07 08:54 50.31762 -3.31500 34588 ft 425 kts 195°
2026-05-07 08:54 50.28918 -3.32566 34820 ft 427 kts 195°
2026-05-07 08:54 50.26025 -3.33649 35037 ft 429 kts 195°
2026-05-07 08:54 50.23104 -3.34741 35032 ft 434 kts 195°
2026-05-07 08:55 50.17241 -3.36928 35032 ft 430 kts 195°
2026-05-07 08:55 50.11515 -3.39056 35033 ft 424 kts 195°
2026-05-07 08:56 50.05777 -3.41186 35043 ft 424 kts 195°
2026-05-07 08:56 50.00046 -3.43309 35042 ft 424 kts 195°
2026-05-07 08:57 49.94309 -3.45428 35040 ft 424 kts 195°
2026-05-07 08:57 49.88562 -3.47546 35034 ft 424 kts 195°
2026-05-07 08:58 49.82856 -3.49643 35040 ft 425 kts 195°
2026-05-07 08:58 49.77098 -3.51755 35036 ft 425 kts 195°
2026-05-07 08:59 49.71258 -3.53302 35035 ft 428 kts 184°
2026-05-07 08:59 49.65305 -3.53617 35029 ft 429 kts 183°
2026-05-07 09:00 49.59382 -3.53886 35036 ft 429 kts 184°
2026-05-07 09:00 49.53419 -3.54198 35035 ft 429 kts 184°
2026-05-07 09:01 49.47458 -3.54538 35034 ft 429 kts 184°
2026-05-07 09:01 49.41495 -3.54887 35029 ft 429 kts 184°
2026-05-07 09:02 49.35580 -3.55233 35030 ft 428 kts 184°
2026-05-07 09:02 49.29628 -3.55579 35035 ft 428 kts 184°
2026-05-07 09:03 49.23677 -3.55924 35016 ft 427 kts 184°
2026-05-07 09:03 49.17741 -3.56268 35022 ft 426 kts 184°
2026-05-07 09:04 49.11856 -3.56607 35022 ft 425 kts 184°
2026-05-07 09:04 49.05946 -3.56947 35024 ft 425 kts 184°
2026-05-07 09:05 49.03292 -3.57100 35019 ft 425 kts 184°
2026-05-07 09:05 48.97390 -3.57439 35030 ft 425 kts 184°
2026-05-07 09:06 48.91480 -3.57777 35020 ft 425 kts 184°
2026-05-07 09:06 48.85613 -3.58112 35019 ft 424 kts 184°
2026-05-07 09:07 48.79722 -3.58447 35023 ft 423 kts 184°
2026-05-07 09:07 48.73837 -3.58782 35028 ft 423 kts 184°
2026-05-07 09:08 48.67947 -3.59116 35030 ft 424 kts 184°
2026-05-07 09:08 48.62076 -3.59448 35017 ft 426 kts 184°
2026-05-07 09:09 48.56155 -3.59782 35003 ft 425 kts 184°
2026-05-07 09:09 48.50251 -3.60114 35001 ft 424 kts 184°
2026-05-07 09:10 48.44363 -3.60445 35001 ft 423 kts 184°
2026-05-07 09:10 48.38521 -3.60773 35009 ft 423 kts 184°
2026-05-07 09:11 48.32637 -3.61102 34990 ft 423 kts 184°
2026-05-07 09:11 48.26763 -3.61429 34995 ft 422 kts 184°
2026-05-07 09:12 48.20903 -3.61755 35004 ft 421 kts 184°
2026-05-07 09:12 48.15088 -3.62078 35004 ft 421 kts 184°
2026-05-07 09:13 48.09242 -3.62402 35000 ft 420 kts 183°
2026-05-07 09:13 48.03399 -3.62725 35010 ft 420 kts 183°
2026-05-07 09:14 47.97551 -3.63048 35015 ft 420 kts 183°
2026-05-07 09:14 47.91704 -3.63370 35012 ft 421 kts 183°
2026-05-07 09:15 47.85890 -3.63689 35012 ft 421 kts 183°
2026-05-07 09:15 47.80038 -3.64009 35018 ft 421 kts 183°
2026-05-07 09:16 47.74182 -3.64329 35021 ft 421 kts 183°
2026-05-07 09:16 47.68318 -3.64649 35023 ft 422 kts 183°
2026-05-07 09:17 47.62487 -3.64966 35032 ft 422 kts 183°
2026-05-07 09:17 47.56620 -3.65285 35027 ft 422 kts 183°
2026-05-07 09:18 47.50759 -3.65602 35016 ft 421 kts 183°
2026-05-07 09:18 47.44908 -3.65918 35021 ft 420 kts 183°
2026-05-07 09:19 47.39102 -3.66232 35021 ft 420 kts 183°
2026-05-07 09:19 47.33266 -3.66546 35021 ft 420 kts 183°
2026-05-07 09:20 47.27433 -3.66859 35021 ft 419 kts 183°
2026-05-07 09:20 47.21606 -3.67171 35022 ft 419 kts 183°
2026-05-07 09:21 47.15824 -3.67480 35024 ft 419 kts 183°
2026-05-07 09:21 47.10001 -3.67791 35023 ft 418 kts 183°
2026-05-07 09:22 47.04183 -3.68101 35026 ft 418 kts 183°
2026-05-07 09:22 46.98376 -3.68663 35025 ft 418 kts 186°
2026-05-07 09:23 46.92619 -3.69405 35026 ft 418 kts 186°
2026-05-07 09:23 46.86825 -3.70137 35024 ft 418 kts 186°
2026-05-07 09:24 46.81027 -3.70839 35028 ft 418 kts 186°
2026-05-07 09:24 46.75234 -3.71524 35027 ft 418 kts 186°
2026-05-07 09:25 46.69483 -3.72199 35027 ft 417 kts 186°
2026-05-07 09:25 46.63694 -3.72876 35027 ft 417 kts 186°
2026-05-07 09:26 46.57903 -3.73553 35028 ft 417 kts 186°
2026-05-07 09:26 46.52115 -3.74228 35025 ft 417 kts 186°
2026-05-07 09:27 46.46369 -3.74897 35024 ft 417 kts 186°
2026-05-07 09:28 46.37695 -3.75905 35027 ft 417 kts 186°
2026-05-07 09:28 46.31918 -3.76574 35025 ft 417 kts 186°
2026-05-07 09:29 46.26174 -3.77238 35019 ft 417 kts 186°
2026-05-07 09:29 46.20399 -3.77904 35026 ft 416 kts 186°
2026-05-07 09:30 46.14624 -3.78569 35028 ft 416 kts 186°
2026-05-07 09:30 46.08852 -3.79231 35025 ft 416 kts 186°
2026-05-07 09:31 46.03119 -3.79888 35029 ft 416 kts 186°
2026-05-07 09:31 45.97350 -3.80548 35023 ft 416 kts 186°
2026-05-07 09:32 45.91579 -3.81207 35024 ft 416 kts 186°
2026-05-07 09:32 45.85815 -3.81864 35022 ft 415 kts 186°
2026-05-07 09:33 45.80091 -3.82514 35014 ft 415 kts 186°
2026-05-07 09:33 45.74334 -3.83167 35024 ft 415 kts 186°
2026-05-07 09:34 45.68576 -3.83819 35017 ft 415 kts 186°
2026-05-07 09:34 45.62825 -3.84468 35019 ft 415 kts 186°
2026-05-07 09:35 45.57114 -3.85112 35019 ft 414 kts 186°
2026-05-07 09:35 45.51366 -3.85759 35014 ft 414 kts 186°
2026-05-07 09:36 45.45621 -3.86404 35017 ft 414 kts 186°
2026-05-07 09:36 45.39878 -3.87047 35016 ft 414 kts 186°
2026-05-07 09:37 45.34174 -3.87685 35020 ft 414 kts 186°
2026-05-07 09:37 45.28429 -3.88326 35006 ft 414 kts 186°
2026-05-07 09:38 45.22687 -3.88966 35012 ft 414 kts 186°
2026-05-07 09:38 45.16942 -3.89604 35011 ft 414 kts 186°
2026-05-07 09:39 45.11230 -3.90237 35002 ft 414 kts 186°
2026-05-07 09:39 45.05482 -3.90874 35006 ft 414 kts 186°
2026-05-07 09:40 44.99731 -3.91509 35002 ft 415 kts 186°
2026-05-07 09:40 44.94017 -3.92139 35003 ft 415 kts 186°
2026-05-07 09:41 44.88266 -3.92772 35002 ft 415 kts 186°
2026-05-07 09:41 44.82513 -3.93403 35001 ft 415 kts 186°
2026-05-07 09:42 44.76763 -3.94033 35000 ft 414 kts 186°
2026-05-07 09:42 44.71017 -3.94662 34999 ft 414 kts 186°
2026-05-07 09:43 44.65309 -3.95285 34994 ft 414 kts 186°
2026-05-07 09:43 44.59572 -3.95910 34994 ft 414 kts 186°
2026-05-07 09:44 44.53835 -3.96533 34985 ft 413 kts 186°
2026-05-07 09:44 44.48104 -3.97155 34994 ft 413 kts 186°
2026-05-07 09:45 44.42419 -3.97771 34992 ft 412 kts 186°
2026-05-07 09:45 44.36701 -3.98389 34986 ft 412 kts 186°
2026-05-07 09:46 44.30985 -3.99011 34985 ft 412 kts 186°
2026-05-07 09:46 44.25279 -3.99662 34983 ft 411 kts 186°
2026-05-07 09:47 44.19620 -4.00315 34981 ft 411 kts 186°
2026-05-07 09:47 44.13921 -4.00968 34970 ft 410 kts 186°
2026-05-07 09:48 44.08237 -4.01617 34976 ft 410 kts 186°
2026-05-07 09:48 44.02558 -4.02263 34974 ft 409 kts 186°
2026-05-07 09:49 43.96924 -4.02902 34973 ft 409 kts 186°
2026-05-07 09:49 43.91259 -4.03544 34971 ft 408 kts 186°
2026-05-07 09:50 43.85593 -4.04185 34968 ft 408 kts 186°
2026-05-07 09:50 43.79933 -4.04824 34964 ft 408 kts 186°
2026-05-07 09:51 43.74311 -4.05457 34955 ft 408 kts 186°
2026-05-07 09:51 43.68659 -4.06092 34962 ft 407 kts 186°
2026-05-07 09:52 43.63010 -4.06726 34959 ft 407 kts 186°
2026-05-07 09:52 43.57358 -4.07359 34947 ft 407 kts 186°
2026-05-07 09:53 43.51750 -4.07986 34944 ft 407 kts 186°
2026-05-07 09:53 43.46112 -4.08615 34945 ft 407 kts 186°
2026-05-07 09:54 43.40472 -4.09243 34944 ft 406 kts 186°
2026-05-07 09:54 43.34835 -4.09870 34939 ft 406 kts 186°
2026-05-07 09:55 43.29238 -4.10491 34944 ft 406 kts 186°
2026-05-07 09:55 43.23610 -4.11114 34941 ft 406 kts 186°
2026-05-07 09:56 43.17978 -4.11737 34939 ft 406 kts 186°
2026-05-07 09:56 43.12352 -4.12357 34930 ft 405 kts 186°
2026-05-07 09:57 43.06777 -4.12972 34942 ft 404 kts 186°
2026-05-07 09:57 43.01177 -4.13587 34949 ft 404 kts 186°
2026-05-07 09:58 42.95576 -4.14202 34943 ft 404 kts 186°
2026-05-07 09:58 42.89975 -4.14815 34944 ft 404 kts 186°
2026-05-07 09:59 42.84414 -4.15424 34943 ft 404 kts 186°
2026-05-07 09:59 42.78817 -4.16034 34943 ft 403 kts 186°
2026-05-07 10:00 42.73221 -4.16644 34948 ft 404 kts 186°
2026-05-07 10:00 42.67663 -4.17248 34958 ft 403 kts 186°
2026-05-07 10:01 42.62069 -4.17856 34952 ft 404 kts 186°
2026-05-07 10:01 42.56465 -4.18463 34948 ft 404 kts 186°
2026-05-07 10:02 42.50867 -4.19068 34946 ft 404 kts 186°
2026-05-07 10:02 42.45270 -4.19673 34949 ft 403 kts 186°
2026-05-07 10:03 42.39707 -4.20275 34951 ft 403 kts 186°
2026-05-07 10:03 42.34114 -4.20888 34948 ft 403 kts 186°
2026-05-07 10:04 42.28525 -4.21492 34945 ft 403 kts 186°
2026-05-07 10:04 42.22932 -4.22088 34945 ft 403 kts 186°
2026-05-07 10:05 42.17373 -4.22675 34950 ft 404 kts 186°
2026-05-07 10:05 42.11769 -4.23268 34937 ft 404 kts 186°
2026-05-07 10:06 42.06161 -4.23865 34945 ft 404 kts 186°
2026-05-07 10:06 42.00586 -4.24458 34943 ft 405 kts 186°
2026-05-07 10:07 41.94972 -4.25055 34947 ft 405 kts 186°
2026-05-07 10:07 41.89356 -4.25651 34940 ft 405 kts 186°
2026-05-07 10:08 41.83734 -4.26246 34939 ft 405 kts 186°
2026-05-07 10:08 41.78117 -4.26840 34936 ft 405 kts 186°
2026-05-07 10:09 41.72535 -4.27429 34930 ft 405 kts 186°
2026-05-07 10:09 41.66916 -4.28020 34923 ft 405 kts 186°
2026-05-07 10:10 41.61302 -4.28611 34923 ft 405 kts 186°
2026-05-07 10:10 41.55691 -4.29200 34923 ft 404 kts 186°
2026-05-07 10:11 41.50120 -4.29783 34925 ft 404 kts 186°
2026-05-07 10:11 41.44509 -4.30370 34922 ft 404 kts 186°
2026-05-07 10:12 41.38897 -4.30956 34923 ft 404 kts 186°
2026-05-07 10:12 41.33289 -4.31541 34915 ft 405 kts 186°
2026-05-07 10:13 41.27672 -4.32125 34918 ft 405 kts 186°
2026-05-07 10:13 41.22100 -4.32704 34917 ft 405 kts 186°
2026-05-07 10:14 41.16488 -4.33286 34920 ft 405 kts 186°
2026-05-07 10:14 41.10871 -4.33867 34924 ft 405 kts 186°
2026-05-07 10:15 41.05258 -4.34448 34927 ft 405 kts 186°
2026-05-07 10:15 40.99678 -4.35023 34930 ft 405 kts 186°
2026-05-07 10:16 40.94060 -4.35602 34933 ft 405 kts 186°
2026-05-07 10:16 40.88442 -4.36179 34935 ft 405 kts 186°
2026-05-07 10:17 40.82817 -4.36757 34950 ft 405 kts 186°
2026-05-07 10:17 40.77237 -4.37328 34944 ft 405 kts 186°
2026-05-07 10:18 40.71619 -4.37903 34939 ft 404 kts 186°
2026-05-07 10:18 40.66015 -4.38475 34945 ft 404 kts 186°
2026-05-07 10:19 40.60418 -4.39046 34949 ft 403 kts 186°
2026-05-07 10:19 40.54862 -4.39611 34941 ft 403 kts 186°
2026-05-07 10:20 40.49274 -4.40179 34940 ft 403 kts 186°
2026-05-07 10:20 40.43689 -4.40745 34945 ft 403 kts 186°
2026-05-07 10:21 40.38106 -4.41311 34928 ft 402 kts 186°
2026-05-07 10:21 40.32561 -4.41872 34938 ft 402 kts 186°
2026-05-07 10:22 40.26983 -4.42435 34935 ft 402 kts 186°
2026-05-07 10:22 40.21403 -4.42997 34931 ft 402 kts 186°
2026-05-07 10:23 40.15824 -4.43558 34927 ft 402 kts 186°
2026-05-07 10:23 40.10282 -4.44115 34924 ft 402 kts 186°
2026-05-07 10:24 40.04705 -4.44674 34922 ft 402 kts 186°
2026-05-07 10:24 39.99125 -4.45233 34922 ft 402 kts 186°
2026-05-07 10:25 39.93542 -4.45791 34911 ft 402 kts 187°
2026-05-07 10:25 39.87995 -4.46344 34923 ft 403 kts 187°
2026-05-07 10:26 39.82403 -4.46901 34912 ft 404 kts 187°
2026-05-07 10:26 39.76796 -4.47459 34920 ft 404 kts 187°
2026-05-07 10:27 39.71190 -4.48015 34917 ft 404 kts 187°
2026-05-07 10:27 39.65577 -4.48572 34923 ft 405 kts 187°
2026-05-07 10:28 39.59998 -4.49124 34924 ft 405 kts 187°
2026-05-07 10:28 39.54375 -4.49680 34927 ft 405 kts 187°
2026-05-07 10:29 39.48748 -4.50235 34920 ft 406 kts 187°
2026-05-07 10:29 39.43112 -4.50790 34925 ft 407 kts 187°
2026-05-07 10:30 39.34676 -4.51619 34936 ft 408 kts 187°
2026-05-07 10:30 39.29020 -4.52174 34928 ft 408 kts 187°
2026-05-07 10:31 39.23355 -4.52729 34921 ft 408 kts 187°
2026-05-07 10:31 39.17686 -4.53283 34924 ft 409 kts 187°
2026-05-07 10:32 39.12047 -4.53834 34921 ft 409 kts 187°
2026-05-07 10:32 39.06372 -4.54387 34930 ft 409 kts 187°
2026-05-07 10:33 39.00694 -4.54939 34919 ft 409 kts 187°
2026-05-07 10:33 38.95008 -4.55492 34912 ft 410 kts 187°
2026-05-07 10:34 38.89420 -4.56428 34928 ft 408 kts 192°
2026-05-07 10:34 38.83818 -4.57639 34910 ft 409 kts 193°
2026-05-07 10:35 38.78193 -4.58853 34901 ft 412 kts 193°
2026-05-07 10:35 38.72516 -4.60050 34913 ft 415 kts 193°
2026-05-07 10:36 38.66830 -4.61233 34917 ft 419 kts 193°
2026-05-07 10:36 38.61058 -4.62428 34916 ft 421 kts 193°
2026-05-07 10:37 38.55259 -4.63625 34853 ft 423 kts 195°
2026-05-07 10:37 38.49434 -4.64827 34910 ft 426 kts 195°
2026-05-07 10:38 38.43559 -4.66039 34921 ft 429 kts 194°
2026-05-07 10:38 38.37676 -4.67250 34921 ft 433 kts 194°
2026-05-07 10:39 38.34695 -4.67863 34593 ft 438 kts 195°
2026-05-07 10:39 38.31679 -4.68483 34103 ft 437 kts 195°
2026-05-07 10:39 38.28683 -4.69095 33604 ft 435 kts 195°
2026-05-07 10:39 38.25713 -4.69701 33142 ft 430 kts 195°
2026-05-07 10:40 38.22770 -4.70301 32700 ft 426 kts 195°
2026-05-07 10:40 38.19856 -4.70895 32273 ft 422 kts 195°
2026-05-07 10:40 38.17010 -4.71477 31858 ft 418 kts 194°
2026-05-07 10:40 38.14151 -4.72061 31447 ft 415 kts 194°
2026-05-07 10:41 38.11314 -4.72641 31035 ft 411 kts 194°
2026-05-07 10:41 38.08498 -4.73216 30617 ft 409 kts 195°
2026-05-07 10:41 38.05699 -4.73788 30209 ft 406 kts 195°
2026-05-07 10:41 38.02920 -4.74354 29784 ft 403 kts 195°
2026-05-07 10:42 38.00163 -4.74916 29313 ft 399 kts 194°
2026-05-07 10:42 37.97470 -4.75463 28904 ft 395 kts 194°
2026-05-07 10:42 37.94774 -4.76010 28489 ft 391 kts 194°
2026-05-07 10:42 37.92106 -4.76552 28086 ft 386 kts 194°
2026-05-07 10:43 37.89462 -4.77090 27669 ft 383 kts 194°
2026-05-07 10:43 37.86845 -4.77621 27271 ft 379 kts 194°
2026-05-07 10:43 37.84251 -4.78148 26843 ft 376 kts 194°
2026-05-07 10:43 37.81684 -4.78668 26475 ft 372 kts 194°
2026-05-07 10:44 37.79131 -4.79186 26079 ft 369 kts 195°
2026-05-07 10:44 37.76775 -4.80159 25674 ft 356 kts 214°
2026-05-07 10:44 37.74845 -4.82020 25301 ft 346 kts 231°
2026-05-07 10:44 37.73375 -4.84378 24929 ft 341 kts 237°
2026-05-07 10:45 37.72010 -4.86818 24541 ft 339 kts 237°
2026-05-07 10:45 37.70663 -4.89254 24158 ft 337 kts 237°
2026-05-07 10:45 37.69318 -4.91668 23781 ft 336 kts 236°
2026-05-07 10:45 37.67971 -4.94059 23392 ft 334 kts 236°
2026-05-07 10:46 37.66620 -4.96439 22947 ft 332 kts 238°
2026-05-07 10:46 37.65273 -4.98799 22536 ft 330 kts 237°
2026-05-07 10:46 37.63952 -5.01105 22157 ft 327 kts 237°
2026-05-07 10:46 37.62441 -5.03246 21708 ft 331 kts 221°
2026-05-07 10:47 37.60456 -5.04784 21217 ft 337 kts 213°
2026-05-07 10:47 37.58383 -5.06204 20655 ft 340 kts 212°
2026-05-07 10:47 37.56298 -5.07639 20112 ft 342 kts 212°
2026-05-07 10:47 37.54208 -5.09098 19562 ft 344 kts 212°
2026-05-07 10:48 37.52097 -5.10530 19024 ft 347 kts 206°
2026-05-07 10:48 37.49729 -5.11237 18463 ft 355 kts 185°
2026-05-07 10:48 37.47284 -5.11230 17870 ft 358 kts 181°
2026-05-07 10:48 37.44793 -5.11136 17239 ft 359 kts 181°
2026-05-07 10:49 37.42301 -5.11061 16643 ft 358 kts 181°
2026-05-07 10:49 37.39810 -5.11008 16063 ft 357 kts 180°
2026-05-07 10:49 37.37358 -5.10512 15477 ft 361 kts 161°
2026-05-07 10:49 37.35126 -5.09061 14934 ft 362 kts 151°
2026-05-07 10:50 37.32982 -5.07405 14377 ft 361 kts 150°
2026-05-07 10:50 37.30841 -5.05765 13793 ft 360 kts 151°
2026-05-07 10:50 37.28691 -5.04149 13160 ft 359 kts 151°
2026-05-07 10:50 37.26509 -5.02750 12543 ft 356 kts 164°
2026-05-07 10:51 37.24093 -5.02302 12015 ft 349 kts 179°
2026-05-07 10:51 37.21679 -5.02271 11453 ft 346 kts 181°
2026-05-07 10:51 37.19274 -5.02280 10900 ft 344 kts 181°
2026-05-07 10:51 37.16886 -5.02283 10355 ft 342 kts 181°
2026-05-07 10:52 37.14515 -5.02272 9825 ft 340 kts 180°
2026-05-07 10:52 37.12205 -5.02247 9820 ft 322 kts 181°
2026-05-07 10:52 37.10019 -5.02217 9721 ft 308 kts 181°
2026-05-07 10:52 37.07950 -5.02187 9612 ft 296 kts 180°
2026-05-07 10:53 37.05936 -5.02159 9523 ft 284 kts 181°
2026-05-07 10:53 37.03993 -5.02131 9415 ft 274 kts 180°
2026-05-07 10:53 37.02128 -5.02105 9343 ft 263 kts 180°
2026-05-07 10:53 37.00330 -5.02079 9229 ft 255 kts 181°
2026-05-07 10:54 36.98563 -5.02053 8913 ft 254 kts 180°
2026-05-07 10:54 36.96800 -5.02028 8672 ft 251 kts 180°
2026-05-07 10:54 36.95134 -5.01576 8461 ft 252 kts 153°
2026-05-07 10:54 36.93843 -5.00147 8349 ft 250 kts 127°
2026-05-07 10:55 36.93141 -4.98169 8121 ft 251 kts 104°
2026-05-07 10:55 36.93004 -4.95989 7875 ft 252 kts 93°
2026-05-07 10:55 36.93081 -4.93788 7514 ft 258 kts 79°
2026-05-07 10:55 36.93870 -4.91802 7277 ft 259 kts 47°
2026-05-07 10:56 36.95355 -4.90582 6992 ft 258 kts 15°
2026-05-07 10:56 36.97116 -4.90292 6947 ft 257 kts 359°
2026-05-07 10:56 36.98908 -4.90317 6931 ft 257 kts 356°
2026-05-07 10:56 37.00653 -4.90376 6909 ft 250 kts 356°
2026-05-07 10:57 37.02364 -4.90424 6913 ft 242 kts 357°
2026-05-07 10:57 37.04034 -4.90458 6910 ft 238 kts 356°
2026-05-07 10:57 37.05691 -4.90484 6923 ft 239 kts 357°
2026-05-07 10:57 37.07360 -4.90510 6923 ft 242 kts 357°
2026-05-07 10:58 37.09052 -4.90534 6932 ft 245 kts 357°
2026-05-07 10:58 37.10762 -4.90557 6928 ft 246 kts 357°
2026-05-07 10:58 37.12474 -4.90578 6917 ft 244 kts 358°
2026-05-07 10:58 37.14111 -4.90598 6906 ft 233 kts 358°
2026-05-07 10:59 37.15693 -4.90617 6898 ft 222 kts 358°
2026-05-07 10:59 37.17197 -4.90636 6896 ft 211 kts 357°
2026-05-07 10:59 37.18633 -4.90348 6906 ft 211 kts 28°
2026-05-07 10:59 37.19620 -4.89068 6930 ft 207 kts 69°
2026-05-07 11:00 37.19910 -4.87319 6937 ft 208 kts 91°
2026-05-07 11:00 37.19937 -4.85501 6923 ft 208 kts 93°
2026-05-07 11:00 37.19937 -4.83687 6929 ft 208 kts 94°
2026-05-07 11:00 37.19732 -4.81945 6909 ft 202 kts 120°
2026-05-07 11:01 37.18823 -4.80683 6929 ft 194 kts 155°
2026-05-07 11:01 37.17561 -4.80224 6926 ft 188 kts 180°
2026-05-07 11:01 37.16260 -4.80204 6916 ft 186 kts 181°
2026-05-07 11:01 37.14977 -4.80186 6918 ft 182 kts 182°
2026-05-07 11:02 37.13718 -4.80171 6915 ft 181 kts 182°
2026-05-07 11:02 37.12457 -4.80158 6914 ft 183 kts 181°
2026-05-07 11:02 37.11174 -4.80144 6917 ft 186 kts 182°
2026-05-07 11:02 37.09876 -4.80128 6933 ft 185 kts 182°
2026-05-07 11:03 37.08612 -4.80115 6928 ft 183 kts 181°
2026-05-07 11:03 37.07349 -4.80100 6909 ft 181 kts 182°
2026-05-07 11:03 37.06099 -4.80086 6909 ft 178 kts 182°
2026-05-07 11:03 37.04865 -4.80072 6920 ft 176 kts 182°
2026-05-07 11:04 37.03638 -4.80059 6910 ft 176 kts 182°
2026-05-07 11:04 37.02401 -4.80046 6928 ft 181 kts 182°
2026-05-07 11:04 37.01134 -4.80032 6926 ft 185 kts 181°
2026-05-07 11:04 36.99861 -4.80017 6917 ft 186 kts 182°
2026-05-07 11:05 36.98457 -4.80004 6780 ft 220 kts 181°
2026-05-07 11:05 36.96851 -4.79990 6543 ft 235 kts 181°
2026-05-07 11:05 36.95212 -4.79971 6284 ft 236 kts 181°
2026-05-07 11:05 36.93575 -4.79946 6056 ft 233 kts 180°
2026-05-07 11:06 36.92001 -4.79514 5795 ft 233 kts 162°
2026-05-07 11:06 36.90491 -4.78818 5536 ft 230 kts 162°
2026-05-07 11:06 36.89000 -4.78144 5305 ft 227 kts 163°
2026-05-07 11:06 36.87528 -4.77492 5076 ft 229 kts 163°
2026-05-07 11:07 36.86054 -4.76725 4882 ft 231 kts 155°
2026-05-07 11:07 36.84635 -4.75757 4750 ft 234 kts 154°
2026-05-07 11:07 36.83208 -4.74767 4542 ft 234 kts 154°
2026-05-07 11:07 36.81788 -4.73782 4301 ft 234 kts 154°
2026-05-07 11:08 36.80344 -4.72795 3780 ft 237 kts 153°
2026-05-07 11:08 36.78900 -4.71814 3291 ft 236 kts 152°
2026-05-07 11:08 36.77526 -4.70697 2781 ft 238 kts 134°
2026-05-07 11:08 36.76741 -4.68939 2595 ft 226 kts 115°
2026-05-07 11:09 36.76071 -4.67293 2521 ft 210 kts 120°
2026-05-07 11:09 36.75403 -4.65752 2493 ft 194 kts 120°
2026-05-07 11:09 36.74793 -4.64315 2419 ft 185 kts 120°
2026-05-07 11:09 36.74193 -4.62897 2181 ft 183 kts 120°
2026-05-07 11:10 36.73620 -4.61532 1941 ft 173 kts 119°
2026-05-07 11:10 36.73080 -4.60250 1722 ft 162 kts 120°
2026-05-07 11:10 36.72579 -4.59055 1510 ft 146 kts 119°
2026-05-07 11:10 36.72122 -4.57987 1441 ft 136 kts 119°
2026-05-07 11:11 36.71686 -4.56949 1276 ft 138 kts 119°
2026-05-07 11:11 36.71239 -4.55884 1147 ft 141 kts 118°
2026-05-07 11:11 36.70787 -4.54782 1003 ft 144 kts 117°
2026-05-07 11:11 36.70350 -4.53667 740 ft 142 kts 117°
2026-05-07 11:12 36.69886 -4.52598 464 ft 138 kts 118°
2026-05-07 11:12 36.69443 -4.51568 223 ft 130 kts 118°
2026-05-07 11:12 36.69163 -4.50915 103 ft 129 kts 118°
2026-05-07 11:12 36.68644 -4.49683 47 ft 113 kts 118°
2026-05-07 11:13 36.68355 -4.49023 44 ft 52 kts 131°
2026-05-07 11:13 36.68195 -4.48867 39 ft 23 kts 153°
2026-05-07 11:13 36.68144 -4.48934 37 ft 10 kts 293°
2026-05-07 11:13 36.68173 -4.49013 38 ft 10 kts 289°
2026-05-07 11:14 36.68204 -4.49088 39 ft 10 kts 298°
2026-05-07 11:14 36.68237 -4.49160 38 ft 9 kts 300°
2026-05-07 11:14 36.68267 -4.49232 39 ft 9 kts 298°
2026-05-07 11:14 36.68272 -4.49243 39 ft 0 kts 298°
2026-05-07 11:15 36.68274 -4.49249 40 ft 5 kts 298°
2026-05-07 11:16 36.68262 -4.49337 38 ft 15 kts 229°
2026-05-07 11:16 36.68205 -4.49401 40 ft 18 kts 221°
2026-05-07 11:16 36.68126 -4.49488 41 ft 12 kts 220°
2026-05-07 11:16 36.68081 -4.49537 41 ft 8 kts 229°
2026-05-07 11:17 36.68028 -4.49599 41 ft 8 kts 217°
2026-05-07 11:17 36.67991 -4.49643 41 ft 6 kts 224°
2026-05-07 11:17 36.67958 -4.49677 41 ft 6 kts 219°
2026-05-07 11:17 36.67926 -4.49711 41 ft 6 kts 224°
2026-05-07 11:18 36.67905 -4.49734 41 ft 6 kts 223°
2026-05-07 11:18 36.67865 -4.49780 41 ft 10 kts 222°
2026-05-07 11:18 36.67790 -4.49852 41 ft 17 kts 191°
2026-05-07 11:18 36.67685 -4.49749 41 ft 23 kts 132°
2026-05-07 11:19 36.67568 -4.49581 41 ft 26 kts 131°
2026-05-07 11:19 36.67449 -4.49424 41 ft 24 kts 130°
2026-05-07 11:19 36.67320 -4.49238 41 ft 9 kts 130°
2026-05-07 11:19 36.67303 -4.49182 41 ft 7 kts 90°
2026-05-07 11:20 36.67303 -4.49177 41 ft 0 kts 90°
2026-05-07 11:20 36.67303 -4.49153 41 ft 3 kts 89°
2026-05-07 11:20 36.67303 -4.49147 41 ft 0 kts 89°